Location: Newark
(35.5300°N, 14.3000°E)
Time: 08:01:15
(UTC+00:00)

OTV 5 (USA 277) - Visible Passes

Search period start: 26 March 2019 00:00
Search period end: 05 April 2019 00:00
Orbit: 315 x 320 km, 54.5° (Epoch: 14 March)

Date Brightness Start Highest point End Pass type
(mag) Time Alt. Az. Time Alt. Az. Time Alt. Az.
28 Mar ? 04:26:28 10° S 04:28:18 17° SE 04:30:08 10° E visible
31 Mar ? 03:36:36 18° S 03:38:01 30° SE 03:40:27 10° ENE visible
01 Apr ? 03:51:17 25° WSW 03:52:38 68° NW 03:55:20 10° NE visible
02 Apr ? 02:34:55 11° E 02:34:55 11° E 02:35:04 10° E visible
02 Apr ? 04:05:50 14° W 04:07:24 21° NW 04:09:36 10° NNE visible
03 Apr ? 02:49:21 21° ENE 02:49:21 21° ENE 02:50:25 10° NE visible
04 Apr ? 03:03:41 22° N 03:03:41 22° N 03:04:59 10° NNE visible
